• In Belgien
  • Länderverzeichnis
  • Für 7 Tage
  • Wassertemperatur
  • Satellitenkarten
  • Wetterkarte
  • Widgets
  • user-avatar
    Anmelden

    Stündliche Wetter Annaba

    Heute, 22 Juni, Freitag

    Zeit Temperatur Niederschläge Wind Luftdruck Luftfeuchtigkeit
    00:00 +25°C° 0 mm 2 m/S 760 mmHg 71%
    01:00 +24°C° 0 mm 1 m/S 760 mmHg 72%
    02:00 +24°C° 0 mm 1 m/S 760 mmHg 74%
    03:00 +24°C° 0 mm 1 m/S 760 mmHg 76%
    04:00 +23°C° 0 mm 1 m/S 760 mmHg 78%
    05:00 +24°C° 0 mm 1 m/S 760 mmHg 75%
    06:00 +25°C° 0 mm 1 m/S 760 mmHg 72%
    07:00 +26°C° 0 mm 1 m/S 760 mmHg 66%
    08:00 +28°C° 0 mm 1 m/S 760 mmHg 59%
    09:00 +30°C° 0 mm 1 m/S 760 mmHg 53%
    10:00 +31°C° 0 mm 2 m/S 760 mmHg 46%
    11:00 +32°C° 0 mm 2 m/S 760 mmHg 43%
    12:00 +34°C° 0 mm 3 m/S 760 mmHg 40%
    13:00 +35°C° 0 mm 4 m/S 760 mmHg 37%
    14:00 +34°C° 0 mm 4 m/S 760 mmHg 38%
    15:00 +34°C° 0 mm 4 m/S 759 mmHg 39%
    16:00 +33°C° 0 mm 4 m/S 759 mmHg 40%
    17:00 +32°C° 0 mm 4 m/S 759 mmHg 44%
    18:00 +30°C° 0 mm 3 m/S 760 mmHg 49%
    19:00 +28°C° 0 mm 2 m/S 760 mmHg 53%
    20:00 +27°C° 0 mm 2 m/S 760 mmHg 60%
    21:00 +26°C° 0 mm 1 m/S 761 mmHg 66%
    22:00 +24°C° 0 mm 1 m/S 761 mmHg 73%
    23:00 +24°C° 0 mm 1 m/S 761 mmHg 73%

    Morgen, 23 Juni, Samstag

    Zeit Temperatur Niederschläge Wind Luftdruck Luftfeuchtigkeit
    00:00 +24°C° 0 mm 1 m/S 761 mmHg 73%
    01:00 +23°C° 0 mm 2 m/S 761 mmHg 74%
    02:00 +23°C° 0 mm 2 m/S 761 mmHg 73%
    03:00 +23°C° 0 mm 2 m/S 761 mmHg 71%
    04:00 +23°C° 0 mm 2 m/S 761 mmHg 70%
    05:00 +24°C° 0 mm 2 m/S 761 mmHg 65%
    06:00 +25°C° 0 mm 2 m/S 761 mmHg 60%
    07:00 +26°C° 0 mm 2 m/S 761 mmHg 55%
    08:00 +28°C° 0 mm 2 m/S 761 mmHg 50%
    09:00 +29°C° 0 mm 2 m/S 761 mmHg 45%
    10:00 +31°C° 0 mm 2 m/S 761 mmHg 40%
    11:00 +33°C° 0 mm 3 m/S 761 mmHg 39%
    12:00 +34°C° 0 mm 4 m/S 761 mmHg 37%
    13:00 +35°C° 0 mm 5 m/S 760 mmHg 36%
    14:00 +34°C° 0 mm 5 m/S 760 mmHg 37%
    15:00 +34°C° 0 mm 5 m/S 760 mmHg 38%
    16:00 +33°C° 0 mm 6 m/S 760 mmHg 39%
    17:00 +32°C° 0 mm 5 m/S 760 mmHg 43%
    18:00 +30°C° 0 mm 5 m/S 760 mmHg 46%
    19:00 +29°C° 0 mm 4 m/S 760 mmHg 50%
    20:00 +27°C° 0 mm 3 m/S 760 mmHg 55%
    21:00 +26°C° 0 mm 3 m/S 761 mmHg 60%
    22:00 +24°C° 0 mm 2 m/S 761 mmHg 65%
    23:00 +24°C° 0 mm 2 m/S 761 mmHg 66%

    übermorgen, 24 Juni, Sonntag

    Zeit Temperatur Niederschläge Wind Luftdruck Luftfeuchtigkeit
    00:00 +24°C° 0 mm 2 m/S 761 mmHg 67%
    01:00 +23°C° 0 mm 2 m/S 761 mmHg 67%
    02:00 +23°C° 0 mm 2 m/S 760 mmHg 68%
    03:00 +23°C° 0 mm 2 m/S 760 mmHg 68%
    04:00 +23°C° 0 mm 2 m/S 760 mmHg 68%
    05:00 +24°C° 0 mm 2 m/S 760 mmHg 65%
    06:00 +24°C° 0 mm 2 m/S 760 mmHg 62%
    07:00 +25°C° 0 mm 1 m/S 760 mmHg 58%
    08:00 +27°C° 0 mm 2 m/S 760 mmHg 54%
    09:00 +29°C° 0 mm 2 m/S 760 mmHg 50%
    10:00 +30°C° 0 mm 3 m/S 760 mmHg 46%
    11:00 +31°C° 0 mm 3 m/S 760 mmHg 43%
    12:00 +33°C° 0 mm 4 m/S 760 mmHg 41%
    13:00 +33°C° 0 mm 5 m/S 760 mmHg 39%
    14:00 +33°C° 0 mm 5 m/S 759 mmHg 39%
    15:00 +33°C° 0 mm 5 m/S 759 mmHg 40%
    16:00 +32°C° 0 mm 5 m/S 759 mmHg 41%
    17:00 +30°C° 0 mm 4 m/S 759 mmHg 44%
    18:00 +29°C° 0 mm 3 m/S 759 mmHg 48%
    19:00 +28°C° 0 mm 2 m/S 759 mmHg 52%
    20:00 +26°C° 0 mm 2 m/S 759 mmHg 59%
    21:00 +25°C° 0 mm 1 m/S 760 mmHg 65%
    22:00 +21°C° 0 mm 0 m/S 760 mmHg 72%
    23:00 +23°C° 0 mm 1 m/S 760 mmHg 72%

    25 Juni, Montag

    Zeit Temperatur Niederschläge Wind Luftdruck Luftfeuchtigkeit
    00:00 +23°C° 0 mm 1 m/S 759 mmHg 73%
    01:00 +23°C° 0 mm 1 m/S 759 mmHg 73%
    02:00 +23°C° 0 mm 1 m/S 759 mmHg 72%
    03:00 +22°C° 0 mm 1 m/S 758 mmHg 72%
    04:00 +21°C° 0 mm 2 m/S 758 mmHg 71%
    05:00 +23°C° 0 mm 2 m/S 758 mmHg 67%
    06:00 +24°C° 0 mm 1 m/S 758 mmHg 64%
    07:00 +25°C° 0 mm 1 m/S 759 mmHg 60%
    08:00 +26°C° 0 mm 2 m/S 759 mmHg 55%
    09:00 +28°C° 0 mm 3 m/S 759 mmHg 50%
    10:00 +29°C° 0 mm 3 m/S 759 mmHg 45%
    11:00 +30°C° 0 mm 4 m/S 759 mmHg 44%
    12:00 +30°C° 0 mm 5 m/S 759 mmHg 42%
    13:00 +32°C° 0 mm 5 m/S 759 mmHg 40%
    14:00 +30°C° 0 mm 5 m/S 760 mmHg 42%
    15:00 +30°C° 0 mm 5 m/S 760 mmHg 44%
    16:00 +30°C° 0 mm 5 m/S 760 mmHg 46%
    17:00 +28°C° 0 mm 5 m/S 760 mmHg 52%
    18:00 +27°C° 0 mm 4 m/S 760 mmHg 57%
    19:00 +26°C° 0 mm 3 m/S 760 mmHg 63%
    20:00 +25°C° 0 mm 2 m/S 761 mmHg 70%
    21:00 +24°C° 0 mm 1 m/S 761 mmHg 78%
    22:00 +20°C° 0 mm 0 m/S 761 mmHg 85%
    23:00 +22°C° 0 mm 1 m/S 761 mmHg 87%

    26 Juni, Dienstag

    Zeit Temperatur Niederschläge Wind Luftdruck Luftfeuchtigkeit
    00:00 +22°C° 0 mm 1 m/S 761 mmHg 88%
    01:00 +21°C° 0 mm 1 m/S 761 mmHg 90%
    02:00 +21°C° 0 mm 1 m/S 761 mmHg 90%
    03:00 +21°C° 0 mm 1 m/S 760 mmHg 89%
    04:00 +21°C° 0 mm 1 m/S 760 mmHg 89%
    05:00 +22°C° 0 mm 1 m/S 760 mmHg 83%
    06:00 +22°C° 0 mm 1 m/S 760 mmHg 77%
    07:00 +23°C° 0 mm 1 m/S 760 mmHg 71%
    08:00 +25°C° 0 mm 1 m/S 760 mmHg 63%
    09:00 +27°C° 0 mm 2 m/S 760 mmHg 55%
    10:00 +29°C° 0 mm 2 m/S 760 mmHg 47%
    11:00 +30°C° 0 mm 2 m/S 760 mmHg 45%
    12:00 +30°C° 0 mm 3 m/S 760 mmHg 43%
    13:00 +32°C° 0 mm 4 m/S 760 mmHg 40%
    14:00 +32°C° 0 mm 4 m/S 760 mmHg 42%
    15:00 +32°C° 0 mm 4 m/S 759 mmHg 43%
    16:00 +30°C° 0 mm 4 m/S 759 mmHg 44%
    17:00 +29°C° 0 mm 4 m/S 760 mmHg 48%
    18:00 +28°C° 0 mm 3 m/S 760 mmHg 52%
    19:00 +27°C° 0 mm 2 m/S 760 mmHg 56%
    20:00 +26°C° 0 mm 2 m/S 760 mmHg 63%
    21:00 +24°C° 0 mm 1 m/S 761 mmHg 70%
    22:00 +21°C° 0 mm 0 m/S 761 mmHg 77%
    23:00 +23°C° 0 mm 1 m/S 761 mmHg 78%

    27 Juni, Mittwoch

    Zeit Temperatur Niederschläge Wind Luftdruck Luftfeuchtigkeit
    00:00 +22°C° 0 mm 1 m/S 761 mmHg 79%
    01:00 +22°C° 0 mm 1 m/S 760 mmHg 80%
    02:00 +22°C° 0 mm 1 m/S 760 mmHg 79%
    03:00 +21°C° 0 mm 1 m/S 760 mmHg 78%
    04:00 +21°C° 0 mm 1 m/S 760 mmHg 77%
    05:00 +22°C° 0 mm 1 m/S 760 mmHg 71%
    06:00 +23°C° 0 mm 1 m/S 760 mmHg 66%
    07:00 +24°C° 0 mm 1 m/S 760 mmHg 60%
    08:00 +26°C° 0 mm 1 m/S 760 mmHg 52%
    09:00 +28°C° 0 mm 1 m/S 760 mmHg 44%
    10:00 +31°C° 0 mm 1 m/S 760 mmHg 36%
    11:00 +31°C° 0 mm 2 m/S 760 mmHg 34%
    12:00 +33°C° 0 mm 3 m/S 759 mmHg 31%
    13:00 +34°C° 0 mm 3 m/S 759 mmHg 29%
    14:00 +34°C° 0 mm 4 m/S 759 mmHg 30%
    15:00 +33°C° 0 mm 4 m/S 759 mmHg 31%
    16:00 +33°C° 0 mm 4 m/S 759 mmHg 32%
    17:00 +32°C° 0 mm 4 m/S 759 mmHg 36%
    18:00 +29°C° 0 mm 4 m/S 759 mmHg 40%
    19:00 +28°C° 0 mm 4 m/S 759 mmHg 43%
    20:00 +27°C° 0 mm 3 m/S 759 mmHg 48%
    21:00 +25°C° 0 mm 2 m/S 760 mmHg 54%
    22:00 +24°C° 0 mm 1 m/S 760 mmHg 59%
    23:00 +23°C° 0 mm 1 m/S 760 mmHg 60%
    Mehr zeigen